Location: Pabrico
(37.5827°N, 122.0063°W)
Time: 22:56:32
(UTC+00:00)

YAOGAN 6 - Pass Details

Date: 13 April 2024
Orbit: 415 x 435 km, 97.2° (Epoch: 21 May)

Event Time Altitude Azimuth Distance (km) Brightness Sun altitude
Rises 12:04:17 0° 5° (N) 2,391 6.5 -17.7°
Reaches altitude 10° 12:06:19 10° 359° (N) 1,526 5.4 -17.4°
Maximum altitude 12:09:28 46° 285° (WNW) 586 2.6 -16.8°
Enters shadow 12:09:52 43° 260° (W) 614 2.6 -16.7°
